Find Connecta T4.2

NORAD ID: 60522 Int'l Des: 2024-149 Owner: PLNSST Country: TR Constellation: plan-s operational
LEOCIRCULARRETROGRADESSO

实时位置

正在加载3D地球...

关于 Connecta T4.2

正在加载描述...

即将过境

Passes for default location (London). Set your location on the main map for personalized predictions.

高度历史

Loading altitude history...

两行轨道根数

1 60522U 24149BG 26133.17957801 .00002973 00000-0 12685-3 0 9994
2 60522 97.3843 211.8637 0008170 90.0860 270.1314 15.23665884 96560
Epoch: May 13, 2026 • Age: 14 hours

当前状态

高度 501.6 km
速度 7.62 km/s
星下点 70.64°N, 37.26°E
发射日期 Aug 16, 2024
运行时间 1.7 years
类型 other

技术详情

分类 Payload
质量 10.00 kg
干质量 10.00 kg
总质量 10.00 kg
长度 0.30 m
直径 0.20 m
跨度 0.30 m
形状 Box
制造商 PLNSST
平台类型 Cubesat 6U
阶段状态 In Orbit
所有者/国家 PLNSST/TR

Most Searched